Weather History for KLLQ - November, 2013

Change the Weather History Date:

Monday, November 18, 2013

  Actual Average Record
Temperature  
Mean Temperature 58 °F -  
Max Temperature 68 °F 62 °F 81 °F (1950)
Min Temperature 48 °F 42 °F 13 °F (1959)
Degree Days  
Heating Degree Days 7    
Growing Degree Days 8 (Base 50)    
Moisture  
Dew Point 39 °F    
Average Humidity 53    
Maximum Humidity 77    
Minimum Humidity 31    
Precipitation  
Precipitation 0.00 in - - ()
Sea Level Pressure  
Sea Level Pressure 30.15 in    
Wind  
Wind Speed 3 mph (NNE)    
Max Wind Speed 14 mph    
Max Gust Speed 20 mph    
Visibility 10 miles    
Events Rain    
Averages and records for this station are not official NWS values.
T = Trace of Precipitation, MM = Missing Value Source: NWS Daily Summary

Daily Weather History Graph

Daily Weather History Graph

Search for Another Location

Airport or City:

Trip Planner

Search our weather history database for the weather conditions in past years. The results will help you decide how hot, cold, wet, or windy it might be!

Date:

Astronomy

Nov. 18, 2013 Rise Set
Actual Time 6:41 AM CST 5:02 PM CST
Civil Twilight 6:15 AM CST 5:28 PM CST
Nautical Twilight 5:45 AM CST 5:59 PM CST
Astronomical Twilight 5:15 AM CST 6:28 PM CST
Moon 6:05 PM CST (11/18) 7:30 AM CST (11/18)
Length of Visible Light 11h 13m
Length of Day
10h 20m
Full, 99% of the Moon is Illuminated
Nov 18
Full
Nov 25
Last Quarter
Dec 2
New
Dec 9
First Quarter
Dec 17
Full

Hourly Weather History & Observations

Time (CST) Temp. Dew Point Humidity Pressure Visibility Wind Dir Wind Speed Gust Speed Precip Events Conditions
12:53 AM 61.0 °F 44.1 °F 54% 30.03 in 10.0 mi Calm Calm - N/A   Partly Cloudy
1:53 AM 57.0 °F 46.9 °F 69% 30.04 in 10.0 mi Calm Calm - 0.00 in Rain Light Rain
2:53 AM 55.9 °F 46.0 °F 69% 30.05 in 10.0 mi Calm Calm - 0.00 in   Clear
3:53 AM 55.0 °F 45.0 °F 69% 30.07 in 10.0 mi NE 3.5 mph - N/A   Clear
4:53 AM 52.0 °F 45.0 °F 77% 30.08 in 10.0 mi Calm Calm - 0.00 in Rain Light Rain
5:53 AM 51.1 °F 39.0 °F 63% 30.09 in 10.0 mi Calm Calm - 0.00 in   Clear
6:53 AM 51.1 °F 37.0 °F 59% 30.12 in 10.0 mi Calm Calm - N/A   Clear
7:53 AM 53.1 °F 35.1 °F 50% 30.15 in 10.0 mi North 3.5 mph - N/A   Clear
8:53 AM 57.9 °F 36.0 °F 44% 30.16 in 10.0 mi Variable 5.8 mph - 0.00 in   Clear
9:53 AM 62.1 °F 37.0 °F 39% 30.18 in 10.0 mi NNE 6.9 mph - N/A   Clear
10:53 AM 64.0 °F 37.0 °F 37% 30.18 in 10.0 mi NNE 8.1 mph - N/A   Clear
11:53 AM 66.0 °F 36.0 °F 33% 30.18 in 10.0 mi NE 12.7 mph 19.6 mph N/A   Clear
12:53 PM 66.9 °F 37.0 °F 33% 30.17 in 10.0 mi NE 13.8 mph 17.3 mph N/A   Clear
1:53 PM 68.0 °F 37.0 °F 32% 30.16 in 10.0 mi NNE 5.8 mph - N/A   Clear
2:53 PM 66.9 °F 35.1 °F 31% 30.16 in 10.0 mi NNE 9.2 mph 19.6 mph N/A   Clear
3:53 PM 64.0 °F 36.0 °F 35% 30.17 in 10.0 mi Variable 6.9 mph - N/A   Clear
4:53 PM 61.0 °F 37.9 °F 42% 30.19 in 10.0 mi NNE 4.6 mph - 0.00 in   Clear
5:53 PM 57.9 °F 37.0 °F 46% 30.20 in 10.0 mi Variable 4.6 mph - N/A   Clear
6:53 PM 54.0 °F 37.9 °F 55% 30.21 in 10.0 mi Variable 3.5 mph - N/A   Clear
7:53 PM 51.1 °F 39.9 °F 66% 30.22 in 10.0 mi Calm Calm - N/A   Clear
8:53 PM 48.0 °F 39.9 °F 74% 30.22 in 10.0 mi Calm Calm - N/A   Clear
9:53 PM 51.1 °F 39.9 °F 66% 30.22 in 10.0 mi NE 3.5 mph - 0.00 in   Clear
10:53 PM 50.0 °F 39.0 °F 66% 30.21 in 10.0 mi NE 4.6 mph - 0.00 in   Clear
11:53 PM 50.0 °F 37.9 °F 63% 30.22 in 10.0 mi Calm Calm - N/A   Clear